Home > Weather > Campbell River > Past weeks

Flag for Canada Past Weather in Campbell River, British Columbia, Canada — Yesterday and Last 2 Weeks

Now
75 °F

Passing clouds.


Feels Like: 78 °F
Forecast: 58 / 80 °F
Wind: 10 mph from Northwest

Location: Campbell River Airport

Current Time: Jul 26, 2016 at 8:52:44 PM

Latest Report: Jul 26, 2016 at 8:00 PM


Visibility: 30 mi

Pressure: 30.07 "Hg

Humidity: 44%

Dew Point: 52 °F

Location of Campbell RiverLocation

Past Weather in Campbell River — Graph

°F

Campbell River Temperature Yesterday

Maximum temperature yesterday: 84 °F (at 6:00 PM)
Minimum temperature yesterday: 63 °F (at 6:00 AM)
Average temperature yesterday: 74 °F

High & Low Weather Summary for the Past Weeks

 TemperatureHumidityPressure
High84 °F (Jul 25, 6:00 PM)100% (Jul 12, 7:00 AM)30.25 "Hg (Jul 12, 7:00 AM)
Low54 °F (Jul 13, 6:00 AM)32% (Jul 21, 7:00 PM)29.90 "Hg (Jul 17, 4:00 PM)
Average67 °F68%30.09 "Hg
* Reported Jul 11 7:00 PM — Jul 26 7:00 PM, Campbell River, Weather by CustomWeather, © 2016

Note: Actual official high and low records may vary slightly from our data, if they occured in-between our weather recording intervals... More about our weather records

Advertising

Campbell River Weather History for the Previous 24 Hours

Scroll right to see more
 ConditionsComfort  
Time TempWeatherWind HumidityBarometerVisibility
7:00 PM
Tue, Jul 26
79 °FPassing clouds.7 mph45%30.08 "Hg30 mi
6:00 PM79 °FPassing clouds.10 mph48%30.08 "Hg30 mi
5:00 PM81 °FPassing clouds.7 mph45%30.09 "Hg30 mi
4:00 PM81 °FPassing clouds.10 mph45%30.10 "Hg30 mi
3:00 PM79 °FPassing clouds.9 mph51%30.11 "Hg30 mi
2:00 PM77 °FPassing clouds.5 mph51%30.11 "Hg30 mi
1:00 PM75 °FPassing clouds.6 mph54%30.12 "Hg30 mi
12:00 PM73 °FPassing clouds.6 mph53%30.12 "Hg30 mi
11:00 AM72 °FPassing clouds.5 mph57%30.13 "Hg30 mi
10:00 AM70 °FPassing clouds.6 mph60%30.14 "Hg30 mi
9:00 AM66 °FSunny.8 mph64%30.14 "Hg30 mi
8:00 AM63 °FSunny.8 mph68%30.13 "Hg30 mi
7:00 AM59 °FPassing clouds.6 mph77%30.12 "Hg30 mi
6:00 AM55 °FPassing clouds.3 mph82%30.11 "Hg30 mi
9:00 PM
Mon, Jul 25
73 °FPartly sunny.5 mph57%30.02 "Hg30 mi
8:00 PM79 °FBroken clouds.7 mph54%30.01 "Hg30 mi
Weather by CustomWeather, © 2016

See weather overviewHow to use our weather pages